sat.trackr.live / text

‹ back to catalog

LOBACHEVSKY (RS83S)

NORAD 67284 · 2025-313AN

PAYLOAD ACTIVE UNKNOWN

§ Identity

Operator
Country
TBD
Launch date
2025-12-28
Launch site
VOSTO
Launch vehicle
Mass (kg)
RCS (m²)

External: N2YO · Heavens-Above · Gunter

§ Orbital elements

Epoch: 2026-09-20T22:31:22.490400Z

Period
94.51 min
Inclination
97.3841°
Eccentricity
0.0011093
Mean motion
15.23674344 rev/d
Perigee alt
487.1 km
Apogee alt
502.4 km
Semi-major
6,872.9 km
B*
1.3167e-4
RAAN
337.1346°
Arg perigee
31.1552°
Mean anomaly
329.0341°
Rev number
4,053

§ Raw data

LOBACHEVSKY (RS83S)1 67284U 25313AN  26263.93845475  .00003092  00000+0  13167-3 0  99992 67284  97.3841 337.1346 0011093  31.1552 329.0341 15.23674344 40532

JSON: /api/v1/satellites/67284 · /tle

For live sub-satellite position, see the globe view (requires WebGL).

§ Visibility from observer

Set your observer location to see the next 7 days of passes ≥ 10°. The values pass through the URL so the page stays shareable.

No JS? Fill the form by hand. The geolocation button needs JavaScript.